When you browse on this site, cookies collect data to enhance your experience and personalize the content and advertising you see.
Visit our Privacy Policy to learn more. By continuing to use the site, you agree to this use of cookies and data.
  • In Latvia
  • List of Countries
  • For 7 days
  • Water Temperature
  • Weather Map
  • Weather Widgets
  • user-avatar
    Login

    Hourly Weather Maseru

    Today, 19 September, Thursday

    Time Temperature Precipitation Wind Pressure Humidity
    00:00 +13°C° 0 mm 1 mps 638 mmHg 50%
    01:00 +13°C° 0 mm 1 mps 638 mmHg 48%
    02:00 +13°C° 0 mm 1 mps 638 mmHg 47%
    03:00 +12°C° 0 mm 1 mps 638 mmHg 48%
    04:00 +12°C° 0 mm 1 mps 638 mmHg 50%
    05:00 +12°C° 0 mm 1 mps 638 mmHg 51%
    06:00 +15°C° 0 mm 1 mps 639 mmHg 39%
    07:00 +19°C° 0 mm 1 mps 641 mmHg 27%
    08:00 +23°C° 0 mm 1 mps 642 mmHg 16%
    09:00 +25°C° 0 mm 2 mps 642 mmHg 14%
    10:00 +27°C° 0 mm 2 mps 643 mmHg 12%
    11:00 +30°C° 0 mm 3 mps 643 mmHg 11%
    12:00 +31°C° 0 mm 3 mps 642 mmHg 10%
    13:00 +31°C° 0 mm 3 mps 642 mmHg 10%
    14:00 +33°C° 0 mm 3 mps 641 mmHg 9%
    15:00 +32°C° 0 mm 2 mps 641 mmHg 10%
    16:00 +31°C° 0 mm 2 mps 641 mmHg 10%
    17:00 +31°C° 0 mm 2 mps 641 mmHg 11%
    18:00 +26°C° 0 mm 2 mps 640 mmHg 23%
    19:00 +22°C° 0 mm 1 mps 638 mmHg 35%
    20:00 +18°C° 0 mm 1 mps 637 mmHg 48%
    21:00 +18°C° 0 mm 1 mps 638 mmHg 41%
    22:00 +17°C° 0 mm 2 mps 638 mmHg 34%
    23:00 +17°C° 0 mm 2 mps 639 mmHg 27%

    Tomorrow, 20 September, Friday

    Time Temperature Precipitation Wind Pressure Humidity
    00:00 +17°C° 0 mm 2 mps 639 mmHg 34%
    01:00 +16°C° 0 mm 2 mps 639 mmHg 41%
    02:00 +16°C° 0 mm 2 mps 639 mmHg 48%
    03:00 +16°C° 0 mm 3 mps 639 mmHg 53%
    04:00 +16°C° 0 mm 3 mps 639 mmHg 57%
    05:00 +14°C° 0 mm 3 mps 639 mmHg 62%
    06:00 +17°C° 0 mm 4 mps 640 mmHg 54%
    07:00 +19°C° 0 mm 4 mps 641 mmHg 45%
    08:00 +20°C° 0 mm 5 mps 642 mmHg 37%
    09:00 +22°C° 0 mm 5 mps 642 mmHg 32%
    10:00 +26°C° 0 mm 4 mps 642 mmHg 26%
    11:00 +28°C° 0 mm 4 mps 643 mmHg 21%
    12:00 +29°C° 0 mm 4 mps 642 mmHg 19%
    13:00 +30°C° 0 mm 4 mps 641 mmHg 17%
    14:00 +32°C° 0 mm 4 mps 641 mmHg 15%
    15:00 +32°C° 0 mm 4 mps 640 mmHg 15%
    16:00 +32°C° 0 mm 4 mps 640 mmHg 15%
    17:00 +30°C° 0 mm 4 mps 640 mmHg 14%
    18:00 +27°C° 0 mm 3 mps 639 mmHg 21%
    19:00 +23°C° 0 mm 2 mps 638 mmHg 27%
    20:00 +19°C° 0 mm 1 mps 637 mmHg 33%
    21:00 +18°C° 0 mm 2 mps 637 mmHg 32%
    22:00 +18°C° 0 mm 2 mps 637 mmHg 30%
    23:00 +18°C° 0 mm 2 mps 638 mmHg 28%

    Day after tomorrow, 21 September, Saturday

    Time Temperature Precipitation Wind Pressure Humidity
    00:00 +18°C° 0 mm 2 mps 637 mmHg 29%
    01:00 +17°C° 0 mm 2 mps 637 mmHg 30%
    02:00 +17°C° 0 mm 2 mps 637 mmHg 30%
    03:00 +16°C° 0 mm 2 mps 636 mmHg 36%
    04:00 +14°C° 0 mm 2 mps 636 mmHg 42%
    05:00 +13°C° 0 mm 1 mps 635 mmHg 47%
    06:00 +15°C° 0 mm 2 mps 636 mmHg 40%
    07:00 +18°C° 0 mm 2 mps 637 mmHg 33%
    08:00 +21°C° 0 mm 3 mps 638 mmHg 25%
    09:00 +23°C° 0 mm 4 mps 639 mmHg 21%
    10:00 +27°C° 0 mm 6 mps 639 mmHg 18%
    11:00 +30°C° 0 mm 7 mps 640 mmHg 14%
    12:00 +30°C° 0 mm 7 mps 639 mmHg 12%
    13:00 +32°C° 0 mm 7 mps 638 mmHg 11%
    14:00 +33°C° 0 mm 8 mps 638 mmHg 9%
    15:00 +32°C° 0 mm 7 mps 637 mmHg 10%
    16:00 +30°C° 0 mm 7 mps 637 mmHg 10%
    17:00 +30°C° 0 mm 7 mps 636 mmHg 11%
    18:00 +27°C° 0 mm 6 mps 636 mmHg 14%
    19:00 +23°C° 0 mm 4 mps 635 mmHg 16%
    20:00 +19°C° 0 mm 2 mps 634 mmHg 19%
    21:00 +18°C° 0 mm 2 mps 634 mmHg 21%
    22:00 +17°C° 0 mm 2 mps 634 mmHg 23%
    23:00 +16°C° 0 mm 2 mps 633 mmHg 24%

    22 September, Sunday

    Time Temperature Precipitation Wind Pressure Humidity
    00:00 +15°C° 0 mm 2 mps 633 mmHg 26%
    01:00 +14°C° 0 mm 2 mps 633 mmHg 28%
    02:00 +13°C° 0 mm 2 mps 632 mmHg 30%
    03:00 +13°C° 0 mm 2 mps 632 mmHg 35%
    04:00 +12°C° 0 mm 2 mps 632 mmHg 40%
    05:00 +10°C° 0 mm 2 mps 632 mmHg 44%
    06:00 +14°C° 0 mm 2 mps 634 mmHg 37%
    07:00 +17°C° 0 mm 2 mps 635 mmHg 29%
    08:00 +19°C° 0 mm 3 mps 637 mmHg 22%
    09:00 +22°C° 0 mm 3 mps 637 mmHg 20%
    10:00 +25°C° 0 mm 4 mps 638 mmHg 18%
    11:00 +27°C° 0 mm 4 mps 638 mmHg 17%
    12:00 +27°C° 0 mm 5 mps 638 mmHg 18%
    13:00 +28°C° 0 mm 6 mps 638 mmHg 19%
    14:00 +28°C° 0 mm 7 mps 638 mmHg 21%
    15:00 +27°C° 0 mm 7 mps 638 mmHg 22%
    16:00 +26°C° 0 mm 7 mps 638 mmHg 23%
    17:00 +24°C° 0 mm 8 mps 638 mmHg 24%
    18:00 +20°C° 0 mm 6 mps 638 mmHg 27%
    19:00 +17°C° 0 mm 4 mps 638 mmHg 30%
    20:00 +13°C° 0 mm 2 mps 637 mmHg 33%
    21:00 +12°C° 0 mm 2 mps 637 mmHg 42%
    22:00 +9°C° 0 mm 2 mps 637 mmHg 50%
    23:00 +9°C° 0 mm 1 mps 637 mmHg 58%

    23 September, Monday

    Time Temperature Precipitation Wind Pressure Humidity
    00:00 +9°C° 0 mm 1 mps 637 mmHg 65%
    01:00 +8°C° 0 mm 1 mps 637 mmHg 72%
    02:00 +7°C° 0 mm 1 mps 637 mmHg 78%
    03:00 +7°C° 0 mm 1 mps 637 mmHg 81%
    04:00 +6°C° 0 mm 0 mps 637 mmHg 83%
    05:00 +5°C° 0 mm 0 mps 637 mmHg 86%
    06:00 +8°C° 0 mm 0 mps 638 mmHg 75%
    07:00 +13°C° 0 mm 1 mps 639 mmHg 64%
    08:00 +16°C° 0 mm 1 mps 640 mmHg 53%
    09:00 +19°C° 0 mm 2 mps 641 mmHg 45%
    10:00 +21°C° 0 mm 3 mps 641 mmHg 38%
    11:00 +25°C° 0 mm 4 mps 641 mmHg 31%
    12:00 +26°C° 0 mm 4 mps 641 mmHg 27%
    13:00 +27°C° 0 mm 5 mps 641 mmHg 23%
    14:00 +28°C° 0 mm 5 mps 640 mmHg 19%
    15:00 +28°C° 0 mm 5 mps 640 mmHg 18%
    16:00 +28°C° 0 mm 4 mps 640 mmHg 18%
    17:00 +28°C° 0 mm 4 mps 639 mmHg 17%
    18:00 +24°C° 0 mm 3 mps 639 mmHg 29%
    19:00 +19°C° 0 mm 2 mps 638 mmHg 41%
    20:00 +15°C° 0 mm 1 mps 637 mmHg 53%
    21:00 +14°C° 0 mm 1 mps 637 mmHg 60%
    22:00 +13°C° 0 mm 2 mps 637 mmHg 67%
    23:00 +12°C° 0 mm 2 mps 637 mmHg 74%

    24 September, Tuesday

    Time Temperature Precipitation Wind Pressure Humidity
    00:00 +10°C° 0 mm 2 mps 637 mmHg 75%
    01:00 +10°C° 0 mm 2 mps 637 mmHg 75%
    02:00 +10°C° 0 mm 2 mps 637 mmHg 76%
    03:00 +9°C° 0 mm 2 mps 637 mmHg 78%
    04:00 +9°C° 0 mm 2 mps 636 mmHg 79%
    05:00 +9°C° 0 mm 1 mps 636 mmHg 81%
    06:00 +12°C° 0 mm 2 mps 637 mmHg 72%
    07:00 +14°C° 0 mm 2 mps 638 mmHg 62%
    08:00 +17°C° 0 mm 2 mps 640 mmHg 53%
    09:00 +19°C° 0 mm 2 mps 640 mmHg 47%
    10:00 +21°C° 0 mm 2 mps 640 mmHg 40%
    11:00 +25°C° 0 mm 2 mps 640 mmHg 34%
    12:00 +26°C° 0 mm 3 mps 640 mmHg 29%
    13:00 +27°C° 0 mm 4 mps 640 mmHg 23%
    14:00 +29°C° 0 mm 4 mps 640 mmHg 18%
    15:00 +28°C° 0 mm 4 mps 640 mmHg 17%
    16:00 +28°C° 0 mm 4 mps 640 mmHg 17%
    17:00 +27°C° 0 mm 4 mps 640 mmHg 17%
    18:00 +24°C° 0 mm 3 mps 639 mmHg 27%
    19:00 +19°C° 0 mm 2 mps 639 mmHg 38%
    20:00 +15°C° 0 mm 2 mps 639 mmHg 49%
    21:00 +13°C° 0 mm 2 mps 639 mmHg 57%
    22:00 +12°C° 0 mm 2 mps 639 mmHg 65%
    23:00 +10°C° 0 mm 2 mps 639 mmHg 73%
    Show more